iso_date,epoch_date,Year,Hour,Min,DOY,POS_DOY,Lat,Lon,BP,Ts,Ta,has_bp,has_ts,has_ta,BuoyID,Buoy_Type,Buoy_Owner,Logistics,Hemisphere
2018-08-10T19:00:28Z,1533927629,2018,19,0,222.792,222.792,-90.0,-180.0,1013.5,12.22,-999.0,yes,yes,no,300234063940710,BD2GHI,AOML,POURQUOI_PAS,North
2018-08-10T20:02:24Z,1533931344,2018,20,2,222.835,222.835,52.392,-44.156,1013.8,12.22,-999.0,yes,yes,no,300234063940710,BD2GHI,AOML,POURQUOI_PAS,North
2018-08-10T21:00:00Z,1533934800,2018,21,0,222.875,222.875,52.402,-44.164,1014.1,12.24,-999.0,yes,yes,no,300234063940710,BD2GHI,AOML,POURQUOI_PAS,North
2018-08-10T22:00:28Z,1533938429,2018,22,0,222.917,222.917,52.411,-44.171,1014.3,12.24,-999.0,yes,yes,no,300234063940710,BD2GHI,AOML,POURQUOI_PAS,North
2018-08-10T22:59:31Z,1533941971,2018,23,0,222.958,222.958,52.421,-44.175,1014.5,12.23,-999.0,yes,yes,no,300234063940710,BD2GHI,AOML,POURQUOI_PAS,North
2018-08-11T00:01:26Z,1533945686,2018,0,1,223.001,223.001,52.434,-44.176,1014.1,12.22,-999.0,yes,yes,no,300234063940710,BD2GHI,AOML,POURQUOI_PAS,North
2018-08-11T01:00:28Z,1533949229,2018,1,1,223.042,223.042,52.441,-44.173,1013.2,12.2,-999.0,yes,yes,no,300234063940710,BD2GHI,AOML,POURQUOI_PAS,North
2018-08-11T01:59:31Z,1533952771,2018,2,0,223.083,223.083,52.45,-44.171,1012.7,12.13,-999.0,yes,yes,no,300234063940710,BD2GHI,AOML,POURQUOI_PAS,North
2018-08-11T03:00:00Z,1533956400,2018,3,0,223.125,223.125,52.459,-44.165,1011.7,12.1,-999.0,yes,yes,no,300234063940710,BD2GHI,AOML,POURQUOI_PAS,North
2018-08-11T04:00:28Z,1533960029,2018,4,0,223.167,223.167,52.467,-44.158,1010.9,12.1,-999.0,yes,yes,no,300234063940710,BD2GHI,AOML,POURQUOI_PAS,North
2018-08-11T04:59:31Z,1533963571,2018,5,0,223.208,223.208,52.476,-44.15,1010.4,12.11,-999.0,yes,yes,no,300234063940710,BD2GHI,AOML,POURQUOI_PAS,North
2018-08-11T06:00:00Z,1533967200,2018,6,0,223.25,223.25,52.484,-44.143,1010.2,12.12,-999.0,yes,yes,no,300234063940710,BD2GHI,AOML,POURQUOI_PAS,North
2018-08-11T07:00:28Z,1533970829,2018,7,0,223.292,223.292,52.491,-44.136,1010.0,12.14,-999.0,yes,yes,no,300234063940710,BD2GHI,AOML,POURQUOI_PAS,North
2018-08-11T09:00:00Z,1533978000,2018,9,0,223.375,223.375,52.503,-44.124,1010.0,12.17,-999.0,yes,yes,no,300234063940710,BD2GHI,AOML,POURQUOI_PAS,North
2018-08-11T10:00:28Z,1533981629,2018,10,0,223.417,223.417,52.506,-44.12,1009.7,12.2,-999.0,yes,yes,no,300234063940710,BD2GHI,AOML,POURQUOI_PAS,North
2018-08-11T10:59:31Z,1533985171,2018,11,0,223.458,223.458,52.511,-44.119,1010.1,12.22,-999.0,yes,yes,no,300234063940710,BD2GHI,AOML,POURQUOI_PAS,North
2018-08-11T12:00:00Z,1533988800,2018,12,0,223.5,223.5,52.518,-44.115,1010.3,12.25,-999.0,yes,yes,no,300234063940710,BD2GHI,AOML,POURQUOI_PAS,North
2018-08-11T13:00:28Z,1533992429,2018,13,0,223.542,223.542,52.524,-44.11,1010.4,12.26,-999.0,yes,yes,no,300234063940710,BD2GHI,AOML,POURQUOI_PAS,North
2018-08-11T13:59:31Z,1533995971,2018,14,0,223.583,223.583,52.531,-44.103,1010.7,12.29,-999.0,yes,yes,no,300234063940710,BD2GHI,AOML,POURQUOI_PAS,North
2018-08-11T15:00:00Z,1533999600,2018,15,0,223.625,223.625,52.54,-44.098,1010.8,12.32,-999.0,yes,yes,no,300234063940710,BD2GHI,AOML,POURQUOI_PAS,North
2018-08-11T16:00:28Z,1534003229,2018,16,0,223.667,223.667,52.547,-44.091,1010.8,12.31,-999.0,yes,yes,no,300234063940710,BD2GHI,AOML,POURQUOI_PAS,North
2018-08-11T16:59:31Z,1534006771,2018,17,0,223.708,223.708,52.556,-44.085,1010.7,12.29,-999.0,yes,yes,no,300234063940710,BD2GHI,AOML,POURQUOI_PAS,North
2018-08-11T18:00:00Z,1534010400,2018,18,0,223.75,223.75,52.568,-44.079,1010.3,12.28,-999.0,yes,yes,no,300234063940710,BD2GHI,AOML,POURQUOI_PAS,North
2018-08-11T19:00:28Z,1534014029,2018,19,0,223.792,223.792,52.578,-44.073,1009.9,12.27,-999.0,yes,yes,no,300234063940710,BD2GHI,AOML,POURQUOI_PAS,North
2018-08-11T19:59:31Z,1534017571,2018,20,0,223.833,223.833,52.589,-44.063,1009.5,12.28,-999.0,yes,yes,no,300234063940710,BD2GHI,AOML,POURQUOI_PAS,North
2018-08-11T21:00:00Z,1534021200,2018,21,0,223.875,223.875,52.6,-44.053,1009.3,12.28,-999.0,yes,yes,no,300234063940710,BD2GHI,AOML,POURQUOI_PAS,North
2018-08-11T22:00:28Z,1534024829,2018,22,0,223.917,223.917,52.61,-44.038,1009.3,12.28,-999.0,yes,yes,no,300234063940710,BD2GHI,AOML,POURQUOI_PAS,North
2018-08-11T22:59:31Z,1534028371,2018,23,0,223.958,223.958,52.621,-44.022,1010.0,12.26,-999.0,yes,yes,no,300234063940710,BD2GHI,AOML,POURQUOI_PAS,North
2018-08-12T00:00:00Z,1534032000,2018,0,0,224.0,224.0,52.63,-44.002,1010.5,12.23,-999.0,yes,yes,no,300234063940710,BD2GHI,AOML,POURQUOI_PAS,North
2018-08-12T01:00:28Z,1534035629,2018,1,0,224.042,224.042,52.637,-43.98,1010.5,12.2,-999.0,yes,yes,no,300234063940710,BD2GHI,AOML,POURQUOI_PAS,North
2018-08-12T01:59:31Z,1534039171,2018,2,0,224.083,224.083,52.644,-43.954,1010.3,12.16,-999.0,yes,yes,no,300234063940710,BD2GHI,AOML,POURQUOI_PAS,North
2018-08-12T03:00:00Z,1534042800,2018,3,0,224.125,224.125,52.65,-43.93,1010.5,12.12,-999.0,yes,yes,no,300234063940710,BD2GHI,AOML,POURQUOI_PAS,North
2018-08-12T04:00:28Z,1534046429,2018,4,0,224.167,224.167,52.655,-43.906,1010.7,12.09,-999.0,yes,yes,no,300234063940710,BD2GHI,AOML,POURQUOI_PAS,North
2018-08-12T05:02:24Z,1534050144,2018,5,2,224.21,224.21,52.66,-43.885,1010.6,12.06,-999.0,yes,yes,no,300234063940710,BD2GHI,AOML,POURQUOI_PAS,North
2018-08-12T06:00:00Z,1534053600,2018,6,0,224.25,224.25,52.667,-43.868,1009.9,12.03,-999.0,yes,yes,no,300234063940710,BD2GHI,AOML,POURQUOI_PAS,North
2018-08-12T07:00:28Z,1534057229,2018,7,0,224.292,224.292,52.673,-43.849,1010.2,12.01,-999.0,yes,yes,no,300234063940710,BD2GHI,AOML,POURQUOI_PAS,North
2018-08-12T07:59:31Z,1534060771,2018,8,0,224.333,224.333,52.681,-43.83,1010.3,12.0,-999.0,yes,yes,no,300234063940710,BD2GHI,AOML,POURQUOI_PAS,North
2018-08-12T09:00:00Z,1534064400,2018,9,0,224.375,224.375,52.688,-43.809,1010.7,11.99,-999.0,yes,yes,no,300234063940710,BD2GHI,AOML,POURQUOI_PAS,North
2018-08-12T10:00:28Z,1534068029,2018,10,1,224.417,224.417,52.696,-43.785,1011.1,11.97,-999.0,yes,yes,no,300234063940710,BD2GHI,AOML,POURQUOI_PAS,North
2018-08-12T10:59:31Z,1534071571,2018,11,0,224.458,224.458,52.702,-43.759,1011.2,11.95,-999.0,yes,yes,no,300234063940710,BD2GHI,AOML,POURQUOI_PAS,North
2018-08-12T12:00:00Z,1534075200,2018,12,0,224.5,224.5,52.709,-43.728,1011.8,11.93,-999.0,yes,yes,no,300234063940710,BD2GHI,AOML,POURQUOI_PAS,North
2018-08-12T13:00:28Z,1534078829,2018,13,0,224.542,224.542,52.712,-43.694,1012.0,11.93,-999.0,yes,yes,no,300234063940710,BD2GHI,AOML,POURQUOI_PAS,North
2018-08-12T14:02:24Z,1534082544,2018,14,3,224.585,224.585,52.713,-43.654,1011.9,11.93,-999.0,yes,yes,no,300234063940710,BD2GHI,AOML,POURQUOI_PAS,North
2018-08-12T15:00:00Z,1534086000,2018,15,0,224.625,224.625,52.718,-43.619,1012.0,11.92,-999.0,yes,yes,no,300234063940710,BD2GHI,AOML,POURQUOI_PAS,North
2018-08-12T16:00:28Z,1534089629,2018,16,0,224.667,224.667,52.718,-43.584,1012.2,11.92,-999.0,yes,yes,no,300234063940710,BD2GHI,AOML,POURQUOI_PAS,North
2018-08-12T16:59:31Z,1534093171,2018,17,0,224.708,224.708,52.717,-43.551,1011.8,11.91,-999.0,yes,yes,no,300234063940710,BD2GHI,AOML,POURQUOI_PAS,North
2018-08-12T18:00:00Z,1534096800,2018,18,0,224.75,224.75,52.719,-43.518,1012.0,11.91,-999.0,yes,yes,no,300234063940710,BD2GHI,AOML,POURQUOI_PAS,North
2018-08-12T19:00:28Z,1534100429,2018,19,0,224.792,224.792,52.717,-43.489,1012.1,11.91,-999.0,yes,yes,no,300234063940710,BD2GHI,AOML,POURQUOI_PAS,North
2018-08-12T19:59:31Z,1534103971,2018,20,0,224.833,224.833,52.717,-43.463,1012.2,11.91,-999.0,yes,yes,no,300234063940710,BD2GHI,AOML,POURQUOI_PAS,North
2018-08-12T21:00:00Z,1534107600,2018,21,0,224.875,224.875,52.718,-43.436,1011.9,11.91,-999.0,yes,yes,no,300234063940710,BD2GHI,AOML,POURQUOI_PAS,North
2018-08-12T22:00:28Z,1534111229,2018,22,1,224.917,224.917,52.719,-43.405,1011.7,11.9,-999.0,yes,yes,no,300234063940710,BD2GHI,AOML,POURQUOI_PAS,North
2018-08-12T22:59:31Z,1534114771,2018,23,0,224.958,224.958,52.719,-43.373,1011.8,11.89,-999.0,yes,yes,no,300234063940710,BD2GHI,AOML,POURQUOI_PAS,North
2018-08-13T00:00:00Z,1534118400,2018,0,0,225.0,225.0,52.72,-43.338,1011.9,11.89,-999.0,yes,yes,no,300234063940710,BD2GHI,AOML,POURQUOI_PAS,North
2018-08-13T01:00:28Z,1534122029,2018,1,0,225.042,225.042,52.72,-43.299,1011.5,11.88,-999.0,yes,yes,no,300234063940710,BD2GHI,AOML,POURQUOI_PAS,North
2018-08-13T01:59:31Z,1534125571,2018,2,0,225.083,225.083,52.718,-43.252,1011.4,11.87,-999.0,yes,yes,no,300234063940710,BD2GHI,AOML,POURQUOI_PAS,North
2018-08-13T03:00:00Z,1534129200,2018,3,0,225.125,225.125,52.714,-43.203,1011.2,11.85,-999.0,yes,yes,no,300234063940710,BD2GHI,AOML,POURQUOI_PAS,North
2018-08-13T04:00:28Z,1534132829,2018,4,0,225.167,225.167,52.706,-43.151,1011.1,11.85,-999.0,yes,yes,no,300234063940710,BD2GHI,AOML,POURQUOI_PAS,North
2018-08-13T05:00:57Z,1534136458,2018,5,1,225.209,225.209,52.698,-43.105,1010.7,11.84,-999.0,yes,yes,no,300234063940710,BD2GHI,AOML,POURQUOI_PAS,North
2018-08-13T06:00:00Z,1534140000,2018,6,0,225.25,225.25,52.687,-43.061,1011.3,11.83,-999.0,yes,yes,no,300234063940710,BD2GHI,AOML,POURQUOI_PAS,North
2018-08-13T07:00:28Z,1534143629,2018,7,0,225.292,225.292,52.675,-43.017,1011.5,11.8,-999.0,yes,yes,no,300234063940710,BD2GHI,AOML,POURQUOI_PAS,North
2018-08-13T07:59:31Z,1534147171,2018,8,0,225.333,225.333,52.662,-42.973,1011.4,11.78,-999.0,yes,yes,no,300234063940710,BD2GHI,AOML,POURQUOI_PAS,North
2018-08-13T09:00:00Z,1534150800,2018,9,0,225.375,225.375,52.647,-42.928,1011.2,11.77,-999.0,yes,yes,no,300234063940710,BD2GHI,AOML,POURQUOI_PAS,North
2018-08-13T10:00:28Z,1534154429,2018,10,0,225.417,225.417,52.633,-42.889,1011.6,11.75,-999.0,yes,yes,no,300234063940710,BD2GHI,AOML,POURQUOI_PAS,North
2018-08-13T10:59:31Z,1534157971,2018,11,0,225.458,225.458,52.618,-42.849,1011.6,11.75,-999.0,yes,yes,no,300234063940710,BD2GHI,AOML,POURQUOI_PAS,North
2018-08-13T12:01:26Z,1534161686,2018,12,2,225.501,225.501,52.599,-42.809,1011.4,11.77,-999.0,yes,yes,no,300234063940710,BD2GHI,AOML,POURQUOI_PAS,North
2018-08-13T13:00:28Z,1534165229,2018,13,0,225.542,225.542,52.581,-42.774,1011.5,11.78,-999.0,yes,yes,no,300234063940710,BD2GHI,AOML,POURQUOI_PAS,North
2018-08-13T14:02:24Z,1534168944,2018,14,2,225.585,225.585,52.565,-42.744,1011.1,11.77,-999.0,yes,yes,no,300234063940710,BD2GHI,AOML,POURQUOI_PAS,North
2018-08-13T15:00:00Z,1534172400,2018,15,0,225.625,225.625,52.551,-42.713,1010.6,11.83,-999.0,yes,yes,no,300234063940710,BD2GHI,AOML,POURQUOI_PAS,North
2018-08-13T16:00:28Z,1534176029,2018,16,0,225.667,225.667,52.536,-42.683,1010.6,11.9,-999.0,yes,yes,no,300234063940710,BD2GHI,AOML,POURQUOI_PAS,North
2018-08-13T16:59:31Z,1534179571,2018,17,0,225.708,225.708,52.522,-42.654,1009.8,11.88,-999.0,yes,yes,no,300234063940710,BD2GHI,AOML,POURQUOI_PAS,North
2018-08-13T18:01:26Z,1534183286,2018,18,2,225.751,225.751,52.511,-42.626,1009.5,11.87,-999.0,yes,yes,no,300234063940710,BD2GHI,AOML,POURQUOI_PAS,North
2018-08-13T19:00:28Z,1534186829,2018,19,0,225.792,225.792,52.5,-42.596,1008.6,11.86,-999.0,yes,yes,no,300234063940710,BD2GHI,AOML,POURQUOI_PAS,North
2018-08-13T19:59:31Z,1534190371,2018,20,0,225.833,225.833,52.488,-42.561,1007.7,11.86,-999.0,yes,yes,no,300234063940710,BD2GHI,AOML,POURQUOI_PAS,North
2018-08-13T21:00:00Z,1534194000,2018,21,0,225.875,225.875,52.473,-42.527,1007.5,11.84,-999.0,yes,yes,no,300234063940710,BD2GHI,AOML,POURQUOI_PAS,North
2018-08-13T22:00:28Z,1534197629,2018,22,0,225.917,225.917,52.456,-42.493,1007.1,11.82,-999.0,yes,yes,no,300234063940710,BD2GHI,AOML,POURQUOI_PAS,North
2018-08-13T22:59:31Z,1534201171,2018,23,0,225.958,225.958,52.439,-42.459,1006.6,11.77,-999.0,yes,yes,no,300234063940710,BD2GHI,AOML,POURQUOI_PAS,North
2018-08-14T00:01:26Z,1534204886,2018,0,1,226.001,226.001,52.418,-42.426,1006.8,11.76,-999.0,yes,yes,no,300234063940710,BD2GHI,AOML,POURQUOI_PAS,North
2018-08-14T01:00:28Z,1534208429,2018,1,1,226.042,226.042,52.394,-42.394,1006.4,11.72,-999.0,yes,yes,no,300234063940710,BD2GHI,AOML,POURQUOI_PAS,North
2018-08-14T01:59:31Z,1534211971,2018,2,0,226.083,226.083,52.369,-42.368,1006.3,11.71,-999.0,yes,yes,no,300234063940710,BD2GHI,AOML,POURQUOI_PAS,North
2018-08-14T03:00:00Z,1534215600,2018,3,0,226.125,226.125,52.341,-42.348,1006.1,11.7,-999.0,yes,yes,no,300234063940710,BD2GHI,AOML,POURQUOI_PAS,North
2018-08-14T04:00:28Z,1534219229,2018,4,1,226.167,226.167,52.312,-42.336,1006.4,11.69,-999.0,yes,yes,no,300234063940710,BD2GHI,AOML,POURQUOI_PAS,North
2018-08-14T05:02:24Z,1534222944,2018,5,2,226.21,226.21,52.286,-42.331,1006.4,11.67,-999.0,yes,yes,no,300234063940710,BD2GHI,AOML,POURQUOI_PAS,North
2018-08-14T06:00:00Z,1534226400,2018,6,0,226.25,226.25,52.264,-42.332,1007.0,11.65,-999.0,yes,yes,no,300234063940710,BD2GHI,AOML,POURQUOI_PAS,North
2018-08-14T07:00:28Z,1534230029,2018,7,0,226.292,226.292,52.246,-42.337,1008.1,11.63,-999.0,yes,yes,no,300234063940710,BD2GHI,AOML,POURQUOI_PAS,North
2018-08-14T08:00:57Z,1534233658,2018,8,1,226.334,226.334,52.229,-42.345,1008.7,11.6,-999.0,yes,yes,no,300234063940710,BD2GHI,AOML,POURQUOI_PAS,North
2018-08-14T09:01:26Z,1534237286,2018,9,1,226.376,226.376,52.213,-42.348,1009.6,11.59,-999.0,yes,yes,no,300234063940710,BD2GHI,AOML,POURQUOI_PAS,North
2018-08-14T10:03:21Z,1534241002,2018,10,4,226.419,226.419,52.199,-42.352,1010.1,11.58,-999.0,yes,yes,no,300234063940710,BD2GHI,AOML,POURQUOI_PAS,North
2018-08-14T10:59:31Z,1534244371,2018,11,0,226.458,226.458,52.188,-42.354,1010.4,11.57,-999.0,yes,yes,no,300234063940710,BD2GHI,AOML,POURQUOI_PAS,North
2018-08-14T12:00:00Z,1534248000,2018,12,0,226.5,226.5,52.175,-42.353,1011.5,11.59,-999.0,yes,yes,no,300234063940710,BD2GHI,AOML,POURQUOI_PAS,North
2018-08-14T13:00:28Z,1534251629,2018,13,0,226.542,226.542,52.162,-42.351,1012.6,11.56,-999.0,yes,yes,no,300234063940710,BD2GHI,AOML,POURQUOI_PAS,North
2018-08-14T13:59:31Z,1534255171,2018,14,0,226.583,226.583,52.149,-42.347,1013.0,11.57,-999.0,yes,yes,no,300234063940710,BD2GHI,AOML,POURQUOI_PAS,North
2018-08-14T15:01:26Z,1534258886,2018,15,2,226.626,226.626,52.13,-42.349,1013.5,11.57,-999.0,yes,yes,no,300234063940710,BD2GHI,AOML,POURQUOI_PAS,North
2018-08-14T16:00:28Z,1534262429,2018,16,0,226.667,226.667,52.115,-42.34,1013.5,11.6,-999.0,yes,yes,no,300234063940710,BD2GHI,AOML,POURQUOI_PAS,North
2018-08-14T17:02:24Z,1534266144,2018,17,2,226.71,226.71,52.097,-42.338,1013.8,11.61,-999.0,yes,yes,no,300234063940710,BD2GHI,AOML,POURQUOI_PAS,North
2018-08-14T18:00:00Z,1534269600,2018,18,0,226.75,226.75,52.079,-42.338,1014.4,11.63,-999.0,yes,yes,no,300234063940710,BD2GHI,AOML,POURQUOI_PAS,North
2018-08-14T19:00:28Z,1534273229,2018,19,0,226.792,226.792,52.061,-42.344,1015.0,11.63,-999.0,yes,yes,no,300234063940710,BD2GHI,AOML,POURQUOI_PAS,North
2018-08-14T19:59:31Z,1534276771,2018,20,0,226.833,226.833,52.043,-42.354,1015.6,11.65,-999.0,yes,yes,no,300234063940710,BD2GHI,AOML,POURQUOI_PAS,North
2018-08-14T21:00:00Z,1534280400,2018,21,0,226.875,226.875,52.027,-42.371,1015.9,11.63,-999.0,yes,yes,no,300234063940710,BD2GHI,AOML,POURQUOI_PAS,North
2018-08-14T22:00:28Z,1534284029,2018,22,0,226.917,226.917,52.013,-42.392,1016.8,11.6,-999.0,yes,yes,no,300234063940710,BD2GHI,AOML,POURQUOI_PAS,North
2018-08-14T22:59:31Z,1534287571,2018,23,0,226.958,226.958,52.002,-42.412,1017.5,11.56,-999.0,yes,yes,no,300234063940710,BD2GHI,AOML,POURQUOI_PAS,North
2018-08-15T00:00:00Z,1534291200,2018,0,0,227.0,227.0,51.995,-42.43,1018.0,11.53,-999.0,yes,yes,no,300234063940710,BD2GHI,AOML,POURQUOI_PAS,North
2018-08-15T01:01:55Z,1534294915,2018,1,2,227.043,227.043,51.988,-42.446,1018.5,11.52,-999.0,yes,yes,no,300234063940710,BD2GHI,AOML,POURQUOI_PAS,North
2018-08-15T01:59:31Z,1534298371,2018,2,0,227.083,227.083,51.982,-42.461,1018.3,11.51,-999.0,yes,yes,no,300234063940710,BD2GHI,AOML,POURQUOI_PAS,North
2018-08-15T03:00:00Z,1534302000,2018,3,0,227.125,227.125,51.978,-42.472,1018.5,11.51,-999.0,yes,yes,no,300234063940710,BD2GHI,AOML,POURQUOI_PAS,North
2018-08-15T04:00:28Z,1534305629,2018,4,0,227.167,227.167,51.974,-42.48,1018.6,11.52,-999.0,yes,yes,no,300234063940710,BD2GHI,AOML,POURQUOI_PAS,North
2018-08-15T04:59:31Z,1534309171,2018,5,0,227.208,227.208,51.968,-42.484,1018.7,11.52,-999.0,yes,yes,no,300234063940710,BD2GHI,AOML,POURQUOI_PAS,North
2018-08-15T06:00:00Z,1534312800,2018,6,0,227.25,227.25,51.961,-42.49,1019.2,11.52,-999.0,yes,yes,no,300234063940710,BD2GHI,AOML,POURQUOI_PAS,North
2018-08-15T07:00:28Z,1534316429,2018,7,0,227.292,227.292,51.952,-42.497,1019.1,11.52,-999.0,yes,yes,no,300234063940710,BD2GHI,AOML,POURQUOI_PAS,North
2018-08-15T07:59:31Z,1534319971,2018,8,0,227.333,227.333,51.943,-42.506,1019.6,11.52,-999.0,yes,yes,no,300234063940710,BD2GHI,AOML,POURQUOI_PAS,North
2018-08-15T09:00:00Z,1534323600,2018,9,0,227.375,227.375,51.934,-42.518,1019.5,11.53,-999.0,yes,yes,no,300234063940710,BD2GHI,AOML,POURQUOI_PAS,North
2018-08-15T10:00:28Z,1534327229,2018,10,0,227.417,227.417,51.924,-42.531,1019.4,11.53,-999.0,yes,yes,no,300234063940710,BD2GHI,AOML,POURQUOI_PAS,North
2018-08-15T10:59:31Z,1534330771,2018,11,0,227.458,227.458,51.916,-42.546,1019.4,11.56,-999.0,yes,yes,no,300234063940710,BD2GHI,AOML,POURQUOI_PAS,North
2018-08-15T12:00:00Z,1534334400,2018,12,0,227.5,227.5,51.906,-42.567,1019.1,11.62,-999.0,yes,yes,no,300234063940710,BD2GHI,AOML,POURQUOI_PAS,North
2018-08-15T13:00:28Z,1534338029,2018,13,0,227.542,227.542,51.896,-42.592,1018.9,11.63,-999.0,yes,yes,no,300234063940710,BD2GHI,AOML,POURQUOI_PAS,North
2018-08-15T13:59:31Z,1534341571,2018,14,0,227.583,227.583,51.888,-42.618,1018.2,11.65,-999.0,yes,yes,no,300234063940710,BD2GHI,AOML,POURQUOI_PAS,North
2018-08-15T15:00:00Z,1534345200,2018,15,0,227.625,227.625,51.884,-42.642,1017.8,11.69,-999.0,yes,yes,no,300234063940710,BD2GHI,AOML,POURQUOI_PAS,North
2018-08-15T16:00:28Z,1534348829,2018,16,0,227.667,227.667,51.883,-42.666,1017.0,11.72,-999.0,yes,yes,no,300234063940710,BD2GHI,AOML,POURQUOI_PAS,North
2018-08-15T16:59:31Z,1534352371,2018,17,0,227.708,227.708,51.884,-42.688,1016.5,11.75,-999.0,yes,yes,no,300234063940710,BD2GHI,AOML,POURQUOI_PAS,North
2018-08-15T18:00:00Z,1534356000,2018,18,0,227.75,227.75,51.885,-42.703,1016.3,11.77,-999.0,yes,yes,no,300234063940710,BD2GHI,AOML,POURQUOI_PAS,North
2018-08-15T19:00:28Z,1534359629,2018,19,0,227.792,227.792,51.889,-42.719,1016.2,11.76,-999.0,yes,yes,no,300234063940710,BD2GHI,AOML,POURQUOI_PAS,North
2018-08-15T19:59:31Z,1534363171,2018,20,0,227.833,227.833,51.89,-42.73,1015.5,11.78,-999.0,yes,yes,no,300234063940710,BD2GHI,AOML,POURQUOI_PAS,North
2018-08-15T21:00:00Z,1534366800,2018,21,0,227.875,227.875,51.89,-42.74,1015.3,11.77,-999.0,yes,yes,no,300234063940710,BD2GHI,AOML,POURQUOI_PAS,North
2018-08-15T22:00:28Z,1534370429,2018,22,0,227.917,227.917,51.888,-42.747,1015.3,11.77,-999.0,yes,yes,no,300234063940710,BD2GHI,AOML,POURQUOI_PAS,North
2018-08-15T22:59:31Z,1534373971,2018,23,0,227.958,227.958,51.882,-42.753,1015.1,11.75,-999.0,yes,yes,no,300234063940710,BD2GHI,AOML,POURQUOI_PAS,North
2018-08-16T00:00:00Z,1534377600,2018,0,0,228.0,228.0,51.874,-42.762,1014.9,11.73,-999.0,yes,yes,no,300234063940710,BD2GHI,AOML,POURQUOI_PAS,North
2018-08-16T01:00:28Z,1534381229,2018,1,0,228.042,228.042,51.863,-42.776,1014.4,11.7,-999.0,yes,yes,no,300234063940710,BD2GHI,AOML,POURQUOI_PAS,North
2018-08-16T01:59:31Z,1534384771,2018,2,0,228.083,228.083,51.854,-42.795,1014.4,11.69,-999.0,yes,yes,no,300234063940710,BD2GHI,AOML,POURQUOI_PAS,North
2018-08-16T03:00:00Z,1534388400,2018,3,0,228.125,228.125,51.844,-42.815,1014.1,11.67,-999.0,yes,yes,no,300234063940710,BD2GHI,AOML,POURQUOI_PAS,North
2018-08-16T04:00:28Z,1534392029,2018,4,0,228.167,228.167,51.837,-42.84,1013.5,11.65,-999.0,yes,yes,no,300234063940710,BD2GHI,AOML,POURQUOI_PAS,North
2018-08-16T04:59:31Z,1534395571,2018,5,0,228.208,228.208,51.833,-42.87,1013.2,11.65,-999.0,yes,yes,no,300234063940710,BD2GHI,AOML,POURQUOI_PAS,North
2018-08-16T06:01:26Z,1534399286,2018,6,1,228.251,228.251,51.832,-42.898,1012.9,11.64,-999.0,yes,yes,no,300234063940710,BD2GHI,AOML,POURQUOI_PAS,North
2018-08-16T07:00:28Z,1534402829,2018,7,0,228.292,228.292,51.833,-42.927,1012.5,11.64,-999.0,yes,yes,no,300234063940710,BD2GHI,AOML,POURQUOI_PAS,North
2018-08-16T07:59:31Z,1534406371,2018,8,0,228.333,228.333,51.84,-42.949,1012.5,11.63,-999.0,yes,yes,no,300234063940710,BD2GHI,AOML,POURQUOI_PAS,North
2018-08-16T09:00:00Z,1534410000,2018,9,0,228.375,228.375,51.849,-42.968,1012.0,11.63,-999.0,yes,yes,no,300234063940710,BD2GHI,AOML,POURQUOI_PAS,North
2018-08-16T10:00:28Z,1534413629,2018,10,1,228.417,228.417,51.853,-42.981,1011.8,11.63,-999.0,yes,yes,no,300234063940710,BD2GHI,AOML,POURQUOI_PAS,North
2018-08-16T10:59:31Z,1534417171,2018,11,0,228.458,228.458,51.86,-42.992,1011.8,11.61,-999.0,yes,yes,no,300234063940710,BD2GHI,AOML,POURQUOI_PAS,North
2018-08-16T12:00:00Z,1534420800,2018,12,0,228.5,228.5,51.86,-43.002,1012.1,11.63,-999.0,yes,yes,no,300234063940710,BD2GHI,AOML,POURQUOI_PAS,North
2018-08-16T13:00:28Z,1534424429,2018,13,0,228.542,228.542,51.858,-43.01,1012.7,11.62,-999.0,yes,yes,no,300234063940710,BD2GHI,AOML,POURQUOI_PAS,North
2018-08-16T13:59:31Z,1534427971,2018,14,0,228.583,228.583,51.854,-43.022,1013.0,11.59,-999.0,yes,yes,no,300234063940710,BD2GHI,AOML,POURQUOI_PAS,North
2018-08-16T15:00:00Z,1534431600,2018,15,0,228.625,228.625,51.846,-43.038,1013.0,11.6,-999.0,yes,yes,no,300234063940710,BD2GHI,AOML,POURQUOI_PAS,North
2018-08-16T16:00:28Z,1534435229,2018,16,0,228.667,228.667,51.838,-43.065,1013.3,11.6,-999.0,yes,yes,no,300234063940710,BD2GHI,AOML,POURQUOI_PAS,North
2018-08-16T16:59:31Z,1534438771,2018,17,0,228.708,228.708,51.832,-43.093,1013.6,11.62,-999.0,yes,yes,no,300234063940710,BD2GHI,AOML,POURQUOI_PAS,North
2018-08-16T18:01:26Z,1534442486,2018,18,1,228.751,228.751,51.83,-43.125,1013.8,11.64,-999.0,yes,yes,no,300234063940710,BD2GHI,AOML,POURQUOI_PAS,North
2018-08-16T19:00:28Z,1534446029,2018,19,0,228.792,228.792,51.831,-43.162,1014.1,11.69,-999.0,yes,yes,no,300234063940710,BD2GHI,AOML,POURQUOI_PAS,North
2018-08-16T19:59:31Z,1534449571,2018,20,0,228.833,228.833,51.835,-43.199,1014.3,11.7,-999.0,yes,yes,no,300234063940710,BD2GHI,AOML,POURQUOI_PAS,North
2018-08-16T21:00:00Z,1534453200,2018,21,0,228.875,228.875,51.843,-43.237,1014.9,11.67,-999.0,yes,yes,no,300234063940710,BD2GHI,AOML,POURQUOI_PAS,North
2018-08-16T22:00:28Z,1534456829,2018,22,0,228.917,228.917,51.854,-43.274,1015.0,11.65,-999.0,yes,yes,no,300234063940710,BD2GHI,AOML,POURQUOI_PAS,North
2018-08-16T22:59:31Z,1534460371,2018,23,0,228.958,228.958,51.868,-43.309,1015.3,11.64,-999.0,yes,yes,no,300234063940710,BD2GHI,AOML,POURQUOI_PAS,North
2018-08-17T00:00:00Z,1534464000,2018,0,0,229.0,229.0,51.883,-43.339,1014.8,11.63,-999.0,yes,yes,no,300234063940710,BD2GHI,AOML,POURQUOI_PAS,North
2018-08-17T01:00:28Z,1534467629,2018,1,0,229.042,229.042,51.896,-43.359,1014.6,11.63,-999.0,yes,yes,no,300234063940710,BD2GHI,AOML,POURQUOI_PAS,North
2018-08-17T01:59:31Z,1534471171,2018,2,0,229.083,229.083,51.909,-43.379,1014.4,11.62,-999.0,yes,yes,no,300234063940710,BD2GHI,AOML,POURQUOI_PAS,North
2018-08-17T03:00:00Z,1534474800,2018,3,0,229.125,229.125,51.919,-43.401,1013.9,11.62,-999.0,yes,yes,no,300234063940710,BD2GHI,AOML,POURQUOI_PAS,North
2018-08-17T04:00:28Z,1534478429,2018,4,0,229.167,229.167,51.923,-43.419,1013.1,11.62,-999.0,yes,yes,no,300234063940710,BD2GHI,AOML,POURQUOI_PAS,North
2018-08-17T04:59:31Z,1534481971,2018,5,0,229.208,229.208,51.932,-43.438,1012.2,11.62,-999.0,yes,yes,no,300234063940710,BD2GHI,AOML,POURQUOI_PAS,North
2018-08-17T06:00:00Z,1534485600,2018,6,0,229.25,229.25,51.935,-43.464,1012.6,11.62,-999.0,yes,yes,no,300234063940710,BD2GHI,AOML,POURQUOI_PAS,North
2018-08-17T07:00:28Z,1534489229,2018,7,0,229.292,229.292,51.934,-43.492,1012.1,11.63,-999.0,yes,yes,no,300234063940710,BD2GHI,AOML,POURQUOI_PAS,North
2018-08-17T07:59:31Z,1534492771,2018,8,0,229.333,229.333,51.94,-43.528,1012.3,11.62,-999.0,yes,yes,no,300234063940710,BD2GHI,AOML,POURQUOI_PAS,North
2018-08-17T09:00:00Z,1534496400,2018,9,0,229.375,229.375,51.948,-43.565,1012.0,11.62,-999.0,yes,yes,no,300234063940710,BD2GHI,AOML,POURQUOI_PAS,North
2018-08-17T10:00:28Z,1534500029,2018,10,0,229.417,229.417,51.955,-43.605,1012.0,11.62,-999.0,yes,yes,no,300234063940710,BD2GHI,AOML,POURQUOI_PAS,North